Regional Weather Roundup
Issued by NWS

Home | Current Version | Previous Version | Graphics & Text | Print | Product List | Glossary On
Versions: 1 2 3 4 5 6 7 8 9 10 11 12 13 14 15 16 17 18 19 20 21 22 23 24 25 26 27 28 29 30 31 32 33 34 35 36 37 38 39 40 41 42 43 44 45 46 47 48 49 50
934
ASUS43 KMKX 220000
RWRWI

WISCONSIN REGIONAL WEATHER ROUNDUP
NATIONAL WEATHER SERVICE MILWAUKEE/SULLIVAN WI
700 PM CDT MON AUG 21 2017

NOTE: "FAIR" INDICATES FEW OR NO CLOUDS BELOW 12,000 FEET WITH NO
SIGNIFICANT WEATHER AND/OR OBSTRUCTIONS TO VISIBILITY.

WIZ001-002-006>008-014>016-023>028-220100-
NORTHWEST WISCONSIN

CITY           SKY/WX    TMP DP  RH WIND       PRES   REMARKS
SUPERIOR ARPT  RAIN      65  62  90 NE6       29.85F
ASHLAND        CLOUDY    65  60  84 N3        29.87F
6HR MIN TEMP:  65; 6HR MAX TEMP:  70; 6HR PCP:  0.01;

HAYWARD        CLOUDY    71  66  84 S5        29.87F
6HR MIN TEMP:  71; 6HR MAX TEMP:  75; 6HR PCP: TRACE;

SIREN          CLOUDY    72  65  79 SW6       29.88F
CUMBERLAND     CLOUDY    70  63  78 CALM      29.88F
RICE LAKE      CLOUDY    71  66  84 SW6       29.90F
CHETEK         CLOUDY    70  68  94 CALM      29.88F
LADYSMITH      CLOUDY    72  67  85 SW5       29.90F
EAU CLAIRE     LGT RAIN  72  67  84 NW7       29.85R
MENOMONIE      CLOUDY    71  65  81 CALM      29.87R
NEW RICHMOND   PTSUNNY   68  61  78 SW3       29.88F
OSCEOLA        PTSUNNY   71  66  85 SW5       29.91S
$$

WIZ003>005-009-010-017-018-220100-
NORTH CENTRAL WISCONSIN

CITY           SKY/WX    TMP DP  RH WIND       PRES   REMARKS
MANITOWISH WTR CLOUDY    72  68  89 S3        29.90F
ARBOR VITAE    TSTM      72  68  86 SW6       29.90F
WOODRUFF       TSTM      72  68  86 SW6       29.90F
RHINELANDER    CLOUDY    68  67  96 SE6       29.92F
6HR MIN TEMP:  67; 6HR MAX TEMP:  78; 6HR PCP:  0.82;

EAGLE RIVER    CLOUDY    70  64  80 S5        29.91S
LAND O LAKES   CLOUDY    71  66  84 CALM      29.93S
PHILLIPS       CLOUDY    73  69  90 SW3       29.89F
TOMAHAWK         N/A     68  66  94 CALM      29.92F FOG
MEDFORD        CLOUDY    70  67  90 S7        29.91F
MERRILL        NOT AVBL
$$

WIZ029-030-035-036-043>047-220100-
CENTRAL WISCONSIN

CITY           SKY/WX    TMP DP  RH WIND       PRES   REMARKS
WAUSAU         CLOUDY    73  66  78 SW3       29.91S
6HR MIN TEMP:  71; 6HR MAX TEMP:  77; 6HR PCP:  0.11;

MOSINEE        NOT AVBL
MARSHFIELD     CLOUDY    71  63  75 SW8       29.91F
6HR MIN TEMP:  71; 6HR MAX TEMP:  79; 6HR PCP: TRACE;

STEVENS POINT  CLOUDY    73  64  72 SW10      29.93S
WAUPACA        CLOUDY    78  67  69 SW6       29.92F HX  80
WAUTOMA        CLOUDY    75  67  76 SW6         N/A
6HR MIN TEMP:  75; 6HR MAX TEMP:  81;

WISC RAPIDS    CLOUDY    74  65  73 W7        29.93F
6HR MIN TEMP:  74; 6HR MAX TEMP:  83;

CAMP DOUGLAS   NOT AVBL
$$

WIZ011>013-019>022-031-037>040-048>050-220100-
NORTHEAST WISCONSIN

CITY           SKY/WX    TMP DP  RH WIND       PRES   REMARKS
ANTIGO         CLOUDY    67  66  95 CALM      29.95R
SHAWANO        CLOUDY    78  68  73 S5        29.91S
OCONTO         CLOUDY    76  70  80 S3        29.90F
STURGEON BAY   CLOUDY    73  68  84 S10       29.92F
6HR MIN TEMP:  72; 6HR MAX TEMP:  79;

GREEN BAY      CLOUDY    76  70  82 S6        29.91F
6HR MIN TEMP:  76; 6HR MAX TEMP:  80;

MANITOWOC      NOT AVBL
APPLETON       MOCLDY    75  64  69 VRB6      29.92S
CLINTONVILLE   CLOUDY    77  66  69 SW7       29.91F
OSHKOSH        CLOUDY    76  70  82 S7        29.93S
6HR MIN TEMP:  74; 6HR MAX TEMP:  81;

$$

WIZ032>034-041-042-053>061-220100-
SOUTHWEST WISCONSIN

CITY           SKY/WX    TMP DP  RH WIND       PRES   REMARKS
LA CROSSE      LGT RAIN  71  67  87 SW5       29.91F
6HR MIN TEMP:  71; 6HR MAX TEMP:  81; 6HR PCP:  0.14;

SPARTA         CLOUDY    69  66  89 W9        29.96S
VIROQUA        CLOUDY    70  68  92 CALM      29.99R
BOSCOBEL       MOCLDY    77  67  71 SW3       29.95F
6HR MIN TEMP:  77; 6HR MAX TEMP:  85;

PRAIRIE DU CHI DRIZZLE   76  65  69 NW7       29.96F
PLATTEVILLE    CLOUDY    75  71  87 W5        29.97F
$$

WIZ056-057-062-063-064-067-068-220100-
SOUTH CENTRAL WISCONSIN

CITY           SKY/WX    TMP DP  RH WIND       PRES   REMARKS
REEDSBURG      CLOUDY    76  67  75 SW7       29.95S
BARABOO/DELLS  CLOUDY    76  65  67 SW7       29.95F
LONE ROCK      CLOUDY    78  67  68 W14       29.95S HX  80
6HR MIN TEMP:  76; 6HR MAX TEMP:  82;

MINERAL POINT  CLOUDY    77  72  83 CALM      29.98F
MADISON        MOCLDY    77  67  71 CALM      29.95F
6HR MIN TEMP:  75; 6HR MAX TEMP:  81;

MIDDLETON      PTCLDY    77  67  72 W5        29.97S
WATERTOWN      MOCLDY    77  71  82 SW5       29.95F
MONROE         CLOUDY    73  66  78 S12       29.97S
JANESVILLE     NOT AVBL
$$

WIZ051-052-058>065-066-070>072-220100-
SOUTHEAST WISCONSIN

CITY           SKY/WX    TMP DP  RH WIND       PRES   REMARKS
MILWAUKEE      MOCLDY    82  71  69 S9        29.94F HX  86
6HR MIN TEMP:  78; 6HR MAX TEMP:  84;

WAUKESHA       MOCLDY    77  66  69 SW12      29.97F
MILWAUKEE/TIMM PTCLDY    81  64  57 S10       29.96F HX  82
RACINE         CLOUDY    78  72  81 S8        29.97F HX  80
6HR MIN TEMP:  76; 6HR MAX TEMP:  82;

KENOSHA        CLOUDY    80  67  64 SW13G20   29.97F HX  82
6HR MIN TEMP:  77; 6HR MAX TEMP:  83;

FOND DU LAC    MOCLDY    77  69  76 SW3       29.94F
6HR MIN TEMP:  74; 6HR MAX TEMP:  81;

SHEBOYGAN      MOCLDY    75  72  90 S10       29.94S
6HR MIN TEMP:  74; 6HR MAX TEMP:  79;

WEST BEND      CLOUDY    77  68  73 SW7       29.96S
JUNEAU         PTCLDY    76  68  76 S7        29.96F
$$

LSZ147-162-220100-
LAKE SUPERIOR

STATION/POSITION TIME  TEMP    WIND        PRES    WAVE
                       AIR SEA DIR/SP/G            HT/PER
                 (UTC) (F)     (DEG/KT/KT) (MB)    (FT/S)
W MID LAKE BUOY  2250   62 61   90/  8/  8 1011.6F   0
DEVILS ISLAND    2300   62     110/  9/ 11 1011.9F
PORT WING        2140   72      30/  7/  9 1012.5F
SAXON HARBOR     2330   66     230/  1/  2 1011.2F
$$

LMZ867-665-643>646-220100-
LAKE MICHIGAN

STATION/POSITION TIME  TEMP    WIND        PRES    WAVE
                       AIR SEA DIR/SP/G            HT/PER
                 (UTC) (F)     (DEG/KT/KT) (MB)    (FT/S)
S GREEN BAY BUOY 2330   76 74  190/  6/  6 1012.3F
N MID LAKE BUOY  2250   69 69  200/  6/  8 1013.9R   1
NORTHPORT PIER   2340   71     150/  4/  5 1012.5F
KEWAUNEE LAKESHO 2330   70     180/  7/  8 1012.5F
SHEBOYGAN LAKESH 2300   72     170/ 10/ 11 1013.3F
PORT WASHINGTON  2330   74     190/  8/ 12 1014.6F
ATWATER BUOY     2209   73 69  160/ 12/ 14 1014.4F
MILWAUKEE LAKESH 2340   73     150/ 13/ 15   N/A
S MID LAKE BUOY  2250   74 72  200/  8/ 10 1015.1R   1
KENOSHA   LAKESH 2300   75     170/ 14/ 16 1014.6
$$

TC  - TEMPERATURE IN CELSIUS
VSB - VISIBILITY IN STATUTE MILES
WCI - WIND CHILL INDEX
HX  - HEAT INDEX





USA.gov is the U.S. government's official web portal to all federal, state and local government web resources and services.